This demonstration page uses our WeatherBlox Daily Observations layout. Learn more.

Left ArrowRight Arrow

34.02893, -84.19858

Hourly Observations for May 26, 2015

Temp ( °F °C ) Dew Point ( °F °C ) Humidity (%) Winds ( mph kmh ) Pressure ( in mb ) Visibility ( mi km ) Precip ( " mm )
12:45 am 00:45 Mostly Cloudy with Mist and Fog 68 20 67 19.4 96 96 Calm 30.18 1022 6 10 0.00 0.00
12:53 am 00:53 Mostly Cloudy 68 20 67 19.4 96 96 Calm 30.19 1022 7 11 0.00 0.00
1:53 am 01:53 Cloudy 68 20 67 19.4 96 96 E 3 6 30.18 1022 8 13 0.00 0.00
2:32 am 02:32 Cloudy 68 20 66 19 94 94 VRB 3 6 30.18 1022 7 11 0.00 0.00
2:53 am 02:53 Cloudy 69 20.6 68 20 96 96 ESE 7 11 30.17 1022 7 11 0.00 0.00
3:53 am 03:53 Cloudy with Mist and Fog 69 20.6 68 20 96 96 SE 7 11 30.16 1021 6 10 0.00 0.00
4:53 am 04:53 Cloudy with Mist and Fog 70 21.1 68 20 93 93 SE 7 11 30.15 1021 6 10 0.00 0.00
5:53 am 05:53 Cloudy with Mist and Fog 70 21.1 68 20 93 93 SSE 8 13 30.17 1022 6 10 0.00 0.00
6:53 am 06:53 Cloudy with Mist and Fog 70 21.1 68 20 93 93 SSE 7 11 30.19 1022 4 6 0.00 0.00
7:53 am 07:53 Cloudy with Mist and Fog 70 21.1 68 20 93 93 SSE 8 13 30.20 1023 5 8 0.00 0.00
8:53 am 08:53 Cloudy with Mist and Fog 71 21.7 68 20 90 90 SE 5 7 30.22 1023 6 10 0.00 0.00
9:53 am 09:53 Cloudy with Mist and Fog 71 21.7 69 20.6 94 94 SSE 6 9 30.21 1023 5 8 0.00 0.00
10:53 am 10:53 Cloudy with Mist and Fog 72 22.2 70 21.1 94 94 S 5 7 30.21 1023 4 6 0.00 0.00
11:53 am 11:53 Cloudy with Mist and Fog 74 23.3 70 21.1 88 88 SSE 7 11 30.21 1023 6 10 0.00 0.00
12:20 pm 12:20 Cloudy with Haze 75 24 70 21 83 83 SSE 9 15 30.21 1023 6 10 0.00 0.00
12:53 pm 12:53 Mostly Cloudy with Haze 79 26.1 71 21.7 77 77 SSE 9 15 30.18 1022 6 10 0.00 0.00
1:53 pm 13:53 Mostly Cloudy with Haze 80 26.7 70 21.1 71 71 SSE 9 15 30.15 1021 6 10 0.00 0.00
2:53 pm 14:53 Mostly Cloudy with Haze 81 27.2 70 21.1 69 69 SSE 8 13 30.11 1020 6 10 0.00 0.00
3:51 pm 15:51 Mostly Cloudy with Nearby Thunderstorms 79 26 72 22 79 79 SSE 7 11 30.09 1019 6 10 0.01 0.25
3:53 pm 15:53 Mostly Cloudy with Nearby Thunderstorms 78 25.6 71 21.7 79 79 SSE 6 9 30.12 1020 6 10 0.01 0.25
4:22 pm 16:22 Mostly Cloudy with Thunderstorms 70 21 64 18 83 83 W 16 26 30.18 1022 4 6 0.00 0.00
4:53 pm 16:53 Cloudy with Nearby Thunderstorms 67 19.4 66 18.9 97 97 NNW 6 9 30.17 1022 5 8 0.24 6.10
5:15 pm 17:15 Cloudy with Mist and Fog 67 19.4 66 18.9 97 97 SW 7 11 30.18 1022 5 8 0.00 0.03
5:28 pm 17:28 Cloudy with Nearby Thunderstorms 66 19 66 19 100 100 SSE 6 9 30.21 1023 5 8 0.00 0.00
5:41 pm 17:41 Cloudy with Nearby Thunderstorms 67 19.4 66 18.9 97 97 S 7 11 30.21 1023 5 8 0.06 1.52
5:53 pm 17:53 Cloudy with Nearby Thunderstorms 67 19.4 67 19.4 100 100 S 8 13 30.19 1022 5 8 0.12 3.05
5:58 pm 17:58 Cloudy with Rain 66 19 66 19 100 100 S 9 15 30.18 1022 2 2 0.00 0.00
6:09 pm 18:09 Cloudy with Nearby Thunderstorms 67 19.4 66 18.9 97 97 S 8 13 30.18 1022 2 3 0.06 1.52
6:37 pm 18:37 Cloudy with Nearby Thunderstorms 66 18.9 66 18.9 100 100 SE 6 9 30.18 1022 4 6 0.13 3.30
6:53 pm 18:53 Mostly Cloudy with Light Rain 66 18.9 65 18.3 96 96 SSE 7 11 30.17 1022 5 8 0.14 3.56
7:53 pm 19:53 Mostly Cloudy with Light Rain 66 18.9 65 18.3 96 96 SE 5 7 30.17 1022 5 8 0.04 1.02
8:53 pm 20:53 Clear 66 18.9 65 18.3 96 96 Calm 30.16 1021 8 13 0.01 0.25
9:53 pm 21:53 Clear 66 18.9 65 18.3 96 96 Calm 30.17 1022 10 16 0.00 0.00
10:47 pm 22:47 Mostly Cloudy 66 19 64 18 94 94 Calm 30.21 1023 9 14 0.00 0.00
10:53 pm 22:53 Mostly Cloudy 66 18.9 65 18.3 96 96 Calm 30.20 1023 8 13 0.00 0.00
11:28 pm 23:28 Partly Cloudy 66 19 64 18 94 94 Calm 30.21 1023 8 13 0.00 0.00
11:53 pm 23:53 Clear with Mist and Fog 65 18.3 64 17.8 97 97 Calm 30.21 1023 6 10 0.00 0.00

Powered by AerisWeather